Location: University of Redlands
(34.0627°N, 117.1632°W)
Time: 09:57:26
(UTC-08:00)

ISS - Visible Passes

Search period start: 25 February 2018 00:00
Search period end: 07 March 2018 00:00
Orbit: 403 x 406 km, 51.6° (Epoch: 26 February)

Date Brightness Start Highest point End Pass type
(mag) Time Alt. Az. Time Alt. Az. Time Alt. Az.
25 Feb -3.9 05:54:38 10° SW 05:57:54 86° NW 06:01:11 10° NE visible
26 Feb -2.6 05:03:23 15° SSW 05:05:45 40° SE 05:08:50 10° ENE visible
27 Feb -1.2 04:14:05 18° ESE 04:14:05 18° ESE 04:16:02 10° E visible
27 Feb -2.9 05:47:01 10° WSW 05:49:58 31° NW 05:52:55 10° NNE visible
28 Feb -3.9 04:57:16 57° W 04:57:39 64° NW 05:00:54 10° NE visible
01 Mar -1.1 04:07:32 19° ENE 04:07:32 19° ENE 04:08:37 10° NE visible
01 Mar -1.8 05:40:13 10° WNW 05:42:07 15° NNW 05:44:07 10° N visible
02 Mar -2.2 04:50:19 23° NNW 04:50:19 23° NNW 04:52:27 10° NNE visible
03 Mar -0.6 04:00:19 11° NE 04:00:19 11° NE 04:00:28 10° NE visible
04 Mar -1.2 04:42:51 11° N 04:42:51 11° N 04:43:23 10° N visible
